Index of /20260503/WXO-DD/model_caps/3km/00/009
Name Last modified Size Description
Parent Directory -
20260503T00Z_MSC_CAPS_AbsoluteVorticity_IsbL-0250_RLatLon0.03_PT009H.grib2 2026-05-03 06:07 1.1M
20260503T00Z_MSC_CAPS_AbsoluteVorticity_IsbL-0500_RLatLon0.03_PT009H.grib2 2026-05-03 06:07 1.1M
20260503T00Z_MSC_CAPS_AbsoluteVorticity_IsbL-0700_RLatLon0.03_PT009H.grib2 2026-05-03 06:07 1.4M
20260503T00Z_MSC_CAPS_AbsoluteVorticity_IsbL-0850_RLatLon0.03_PT009H.grib2 2026-05-03 06:07 1.2M
20260503T00Z_MSC_CAPS_AbsoluteVorticity_IsbL-1000_RLatLon0.03_PT009H.grib2 2026-05-03 06:07 1.3M
20260503T00Z_MSC_CAPS_AirDensity_AGL-120m_RLatLon0.03_PT009H.grib2 2026-05-03 06:07 1.4M
20260503T00Z_MSC_CAPS_AirDensity_AGL-40m_RLatLon0.03_PT009H.grib2 2026-05-03 06:07 1.4M
20260503T00Z_MSC_CAPS_AirDensity_AGL-80m_RLatLon0.03_PT009H.grib2 2026-05-03 06:07 1.4M
20260503T00Z_MSC_CAPS_AirTemp_AGL-120m_RLatLon0.03_PT009H.grib2 2026-05-03 06:07 1.4M
20260503T00Z_MSC_CAPS_AirTemp_AGL-2m_RLatLon0.03_PT009H.grib2 2026-05-03 06:07 1.8M
20260503T00Z_MSC_CAPS_AirTemp_AGL-40m_RLatLon0.03_PT009H.grib2 2026-05-03 06:07 1.5M
20260503T00Z_MSC_CAPS_AirTemp_AGL-80m_RLatLon0.03_PT009H.grib2 2026-05-03 06:07 1.4M
20260503T00Z_MSC_CAPS_AirTemp_IsbL-0050_RLatLon0.03_PT009H.grib2 2026-05-03 06:07 692K
20260503T00Z_MSC_CAPS_AirTemp_IsbL-0100_RLatLon0.03_PT009H.grib2 2026-05-03 06:07 735K
20260503T00Z_MSC_CAPS_AirTemp_IsbL-0150_RLatLon0.03_PT009H.grib2 2026-05-03 06:07 755K
20260503T00Z_MSC_CAPS_AirTemp_IsbL-0175_RLatLon0.03_PT009H.grib2 2026-05-03 06:07 770K
20260503T00Z_MSC_CAPS_AirTemp_IsbL-0200_RLatLon0.03_PT009H.grib2 2026-05-03 06:07 788K
20260503T00Z_MSC_CAPS_AirTemp_IsbL-0225_RLatLon0.03_PT009H.grib2 2026-05-03 06:07 791K
20260503T00Z_MSC_CAPS_AirTemp_IsbL-0250_RLatLon0.03_PT009H.grib2 2026-05-03 06:07 1.0M
20260503T00Z_MSC_CAPS_AirTemp_IsbL-0275_RLatLon0.03_PT009H.grib2 2026-05-03 06:07 1.0M
20260503T00Z_MSC_CAPS_AirTemp_IsbL-0300_RLatLon0.03_PT009H.grib2 2026-05-03 06:07 1.0M
20260503T00Z_MSC_CAPS_AirTemp_IsbL-0350_RLatLon0.03_PT009H.grib2 2026-05-03 06:07 753K
20260503T00Z_MSC_CAPS_AirTemp_IsbL-0400_RLatLon0.03_PT009H.grib2 2026-05-03 06:07 755K
20260503T00Z_MSC_CAPS_AirTemp_IsbL-0450_RLatLon0.03_PT009H.grib2 2026-05-03 06:07 774K
20260503T00Z_MSC_CAPS_AirTemp_IsbL-0500_RLatLon0.03_PT009H.grib2 2026-05-03 06:07 789K
20260503T00Z_MSC_CAPS_AirTemp_IsbL-0550_RLatLon0.03_PT009H.grib2 2026-05-03 06:07 956K
20260503T00Z_MSC_CAPS_AirTemp_IsbL-0600_RLatLon0.03_PT009H.grib2 2026-05-03 06:07 1.0M
20260503T00Z_MSC_CAPS_AirTemp_IsbL-0650_RLatLon0.03_PT009H.grib2 2026-05-03 06:07 1.0M
20260503T00Z_MSC_CAPS_AirTemp_IsbL-0700_RLatLon0.03_PT009H.grib2 2026-05-03 06:07 1.0M
20260503T00Z_MSC_CAPS_AirTemp_IsbL-0750_RLatLon0.03_PT009H.grib2 2026-05-03 06:07 1.0M
20260503T00Z_MSC_CAPS_AirTemp_IsbL-0800_RLatLon0.03_PT009H.grib2 2026-05-03 06:07 1.1M
20260503T00Z_MSC_CAPS_AirTemp_IsbL-0850_RLatLon0.03_PT009H.grib2 2026-05-03 06:07 1.0M
20260503T00Z_MSC_CAPS_AirTemp_IsbL-0875_RLatLon0.03_PT009H.grib2 2026-05-03 06:07 1.0M
20260503T00Z_MSC_CAPS_AirTemp_IsbL-0900_RLatLon0.03_PT009H.grib2 2026-05-03 06:07 1.0M
20260503T00Z_MSC_CAPS_AirTemp_IsbL-0925_RLatLon0.03_PT009H.grib2 2026-05-03 06:07 1.1M
20260503T00Z_MSC_CAPS_AirTemp_IsbL-0950_RLatLon0.03_PT009H.grib2 2026-05-03 06:07 1.1M
20260503T00Z_MSC_CAPS_AirTemp_IsbL-0970_RLatLon0.03_PT009H.grib2 2026-05-03 06:07 1.1M
20260503T00Z_MSC_CAPS_AirTemp_IsbL-0985_RLatLon0.03_PT009H.grib2 2026-05-03 06:07 1.1M
20260503T00Z_MSC_CAPS_AirTemp_IsbL-1000_RLatLon0.03_PT009H.grib2 2026-05-03 06:07 1.0M
20260503T00Z_MSC_CAPS_AirTemp_IsbL-1015_RLatLon0.03_PT009H.grib2 2026-05-03 06:07 851K
20260503T00Z_MSC_CAPS_Albedo_Sfc_RLatLon0.03_PT009H.grib2 2026-05-03 06:07 2.7M
20260503T00Z_MSC_CAPS_CAPE_Sfc_RLatLon0.03_PT009H.grib2 2026-05-03 06:07 168K
20260503T00Z_MSC_CAPS_CloudWater_EAtm_RLatLon0.03_PT009H.grib2 2026-05-03 06:07 1.4M
20260503T00Z_MSC_CAPS_ConvectivePrecip-Accum_Sfc_RLatLon0.03_PT009H.grib2 2026-05-03 06:07 2.2M
20260503T00Z_MSC_CAPS_DewPointDepression_AGL-120m_RLatLon0.03_PT009H.grib2 2026-05-03 06:07 1.9M
20260503T00Z_MSC_CAPS_DewPointDepression_AGL-2m_RLatLon0.03_PT009H.grib2 2026-05-03 06:07 2.1M
20260503T00Z_MSC_CAPS_DewPointDepression_AGL-40m_RLatLon0.03_PT009H.grib2 2026-05-03 06:07 2.0M
20260503T00Z_MSC_CAPS_DewPointDepression_AGL-80m_RLatLon0.03_PT009H.grib2 2026-05-03 06:07 2.0M
20260503T00Z_MSC_CAPS_DewPointDepression_IsbL-0050_RLatLon0.03_PT009H.grib2 2026-05-03 06:07 13K
20260503T00Z_MSC_CAPS_DewPointDepression_IsbL-0100_RLatLon0.03_PT009H.grib2 2026-05-03 06:07 107K
20260503T00Z_MSC_CAPS_DewPointDepression_IsbL-0150_RLatLon0.03_PT009H.grib2 2026-05-03 06:07 95K
20260503T00Z_MSC_CAPS_DewPointDepression_IsbL-0175_RLatLon0.03_PT009H.grib2 2026-05-03 06:07 237K
20260503T00Z_MSC_CAPS_DewPointDepression_IsbL-0200_RLatLon0.03_PT009H.grib2 2026-05-03 06:07 375K
20260503T00Z_MSC_CAPS_DewPointDepression_IsbL-0225_RLatLon0.03_PT009H.grib2 2026-05-03 06:07 619K
20260503T00Z_MSC_CAPS_DewPointDepression_IsbL-0250_RLatLon0.03_PT009H.grib2 2026-05-03 06:07 823K
20260503T00Z_MSC_CAPS_DewPointDepression_IsbL-0275_RLatLon0.03_PT009H.grib2 2026-05-03 06:07 1.0M
20260503T00Z_MSC_CAPS_DewPointDepression_IsbL-0300_RLatLon0.03_PT009H.grib2 2026-05-03 06:07 1.0M
20260503T00Z_MSC_CAPS_DewPointDepression_IsbL-0350_RLatLon0.03_PT009H.grib2 2026-05-03 06:07 1.0M
20260503T00Z_MSC_CAPS_DewPointDepression_IsbL-0400_RLatLon0.03_PT009H.grib2 2026-05-03 06:07 1.1M
20260503T00Z_MSC_CAPS_DewPointDepression_IsbL-0450_RLatLon0.03_PT009H.grib2 2026-05-03 06:07 1.1M
20260503T00Z_MSC_CAPS_DewPointDepression_IsbL-0500_RLatLon0.03_PT009H.grib2 2026-05-03 06:07 1.1M
20260503T00Z_MSC_CAPS_DewPointDepression_IsbL-0550_RLatLon0.03_PT009H.grib2 2026-05-03 06:07 1.1M
20260503T00Z_MSC_CAPS_DewPointDepression_IsbL-0600_RLatLon0.03_PT009H.grib2 2026-05-03 06:07 1.2M
20260503T00Z_MSC_CAPS_DewPointDepression_IsbL-0650_RLatLon0.03_PT009H.grib2 2026-05-03 06:07 1.2M
20260503T00Z_MSC_CAPS_DewPointDepression_IsbL-0700_RLatLon0.03_PT009H.grib2 2026-05-03 06:07 1.3M
20260503T00Z_MSC_CAPS_DewPointDepression_IsbL-0750_RLatLon0.03_PT009H.grib2 2026-05-03 06:07 1.3M
20260503T00Z_MSC_CAPS_DewPointDepression_IsbL-0800_RLatLon0.03_PT009H.grib2 2026-05-03 06:07 1.3M
20260503T00Z_MSC_CAPS_DewPointDepression_IsbL-0850_RLatLon0.03_PT009H.grib2 2026-05-03 06:07 1.3M
20260503T00Z_MSC_CAPS_DewPointDepression_IsbL-0875_RLatLon0.03_PT009H.grib2 2026-05-03 06:07 1.3M
20260503T00Z_MSC_CAPS_DewPointDepression_IsbL-0900_RLatLon0.03_PT009H.grib2 2026-05-03 06:07 1.3M
20260503T00Z_MSC_CAPS_DewPointDepression_IsbL-0925_RLatLon0.03_PT009H.grib2 2026-05-03 06:07 1.3M
20260503T00Z_MSC_CAPS_DewPointDepression_IsbL-0950_RLatLon0.03_PT009H.grib2 2026-05-03 06:07 1.3M
20260503T00Z_MSC_CAPS_DewPointDepression_IsbL-0970_RLatLon0.03_PT009H.grib2 2026-05-03 06:07 1.3M
20260503T00Z_MSC_CAPS_DewPointDepression_IsbL-0985_RLatLon0.03_PT009H.grib2 2026-05-03 06:07 1.3M
20260503T00Z_MSC_CAPS_DewPointDepression_IsbL-1000_RLatLon0.03_PT009H.grib2 2026-05-03 06:07 1.3M
20260503T00Z_MSC_CAPS_DewPointDepression_IsbL-1015_RLatLon0.03_PT009H.grib2 2026-05-03 06:07 1.3M
20260503T00Z_MSC_CAPS_DewPoint_AGL-120m_RLatLon0.03_PT009H.grib2 2026-05-03 06:07 3.5M
20260503T00Z_MSC_CAPS_DewPoint_AGL-2m_RLatLon0.03_PT009H.grib2 2026-05-03 06:07 1.8M
20260503T00Z_MSC_CAPS_DewPoint_AGL-40m_RLatLon0.03_PT009H.grib2 2026-05-03 06:07 3.6M
20260503T00Z_MSC_CAPS_DewPoint_AGL-80m_RLatLon0.03_PT009H.grib2 2026-05-03 06:07 3.6M
20260503T00Z_MSC_CAPS_DownwardLongwaveRadiationFlux-Accum_Sfc_RLatLon0.03_PT009H.grib2 2026-05-03 06:07 2.1M
20260503T00Z_MSC_CAPS_DownwardShortwaveRadiationFlux-Accum_NTAtm_RLatLon0.03_PT009H.grib2 2026-05-03 06:07 445K
20260503T00Z_MSC_CAPS_DownwardShortwaveRadiationFlux-Accum_Sfc_RLatLon0.03_PT009H.grib2 2026-05-03 06:07 2.0M
20260503T00Z_MSC_CAPS_FreezingRain-Accum_Sfc_RLatLon0.03_PT009H.grib2 2026-05-03 06:07 425K
20260503T00Z_MSC_CAPS_GeopotentialHeight_IsbL-0050_RLatLon0.03_PT009H.grib2 2026-05-03 06:07 635K
20260503T00Z_MSC_CAPS_GeopotentialHeight_IsbL-0100_RLatLon0.03_PT009H.grib2 2026-05-03 06:07 769K
20260503T00Z_MSC_CAPS_GeopotentialHeight_IsbL-0150_RLatLon0.03_PT009H.grib2 2026-05-03 06:07 727K
20260503T00Z_MSC_CAPS_GeopotentialHeight_IsbL-0175_RLatLon0.03_PT009H.grib2 2026-05-03 06:07 736K
20260503T00Z_MSC_CAPS_GeopotentialHeight_IsbL-0200_RLatLon0.03_PT009H.grib2 2026-05-03 06:07 751K
20260503T00Z_MSC_CAPS_GeopotentialHeight_IsbL-0225_RLatLon0.03_PT009H.grib2 2026-05-03 06:07 758K
20260503T00Z_MSC_CAPS_GeopotentialHeight_IsbL-0250_RLatLon0.03_PT009H.grib2 2026-05-03 06:07 769K
20260503T00Z_MSC_CAPS_GeopotentialHeight_IsbL-0275_RLatLon0.03_PT009H.grib2 2026-05-03 06:07 778K
20260503T00Z_MSC_CAPS_GeopotentialHeight_IsbL-0300_RLatLon0.03_PT009H.grib2 2026-05-03 06:07 782K
20260503T00Z_MSC_CAPS_GeopotentialHeight_IsbL-0350_RLatLon0.03_PT009H.grib2 2026-05-03 06:07 782K
20260503T00Z_MSC_CAPS_GeopotentialHeight_IsbL-0400_RLatLon0.03_PT009H.grib2 2026-05-03 06:07 778K
20260503T00Z_MSC_CAPS_GeopotentialHeight_IsbL-0450_RLatLon0.03_PT009H.grib2 2026-05-03 06:07 768K
20260503T00Z_MSC_CAPS_GeopotentialHeight_IsbL-0500_RLatLon0.03_PT009H.grib2 2026-05-03 06:07 759K
20260503T00Z_MSC_CAPS_GeopotentialHeight_IsbL-0550_RLatLon0.03_PT009H.grib2 2026-05-03 06:07 747K
20260503T00Z_MSC_CAPS_GeopotentialHeight_IsbL-0600_RLatLon0.03_PT009H.grib2 2026-05-03 06:07 632K
20260503T00Z_MSC_CAPS_GeopotentialHeight_IsbL-0650_RLatLon0.03_PT009H.grib2 2026-05-03 06:07 630K
20260503T00Z_MSC_CAPS_GeopotentialHeight_IsbL-0700_RLatLon0.03_PT009H.grib2 2026-05-03 06:07 633K
20260503T00Z_MSC_CAPS_GeopotentialHeight_IsbL-0750_RLatLon0.03_PT009H.grib2 2026-05-03 06:07 637K
20260503T00Z_MSC_CAPS_GeopotentialHeight_IsbL-0800_RLatLon0.03_PT009H.grib2 2026-05-03 06:07 820K
20260503T00Z_MSC_CAPS_GeopotentialHeight_IsbL-0850_RLatLon0.03_PT009H.grib2 2026-05-03 06:07 828K
20260503T00Z_MSC_CAPS_GeopotentialHeight_IsbL-0875_RLatLon0.03_PT009H.grib2 2026-05-03 06:07 835K
20260503T00Z_MSC_CAPS_GeopotentialHeight_IsbL-0900_RLatLon0.03_PT009H.grib2 2026-05-03 06:07 840K
20260503T00Z_MSC_CAPS_GeopotentialHeight_IsbL-0925_RLatLon0.03_PT009H.grib2 2026-05-03 06:07 852K
20260503T00Z_MSC_CAPS_GeopotentialHeight_IsbL-0950_RLatLon0.03_PT009H.grib2 2026-05-03 06:07 858K
20260503T00Z_MSC_CAPS_GeopotentialHeight_IsbL-0970_RLatLon0.03_PT009H.grib2 2026-05-03 06:07 867K
20260503T00Z_MSC_CAPS_GeopotentialHeight_IsbL-0985_RLatLon0.03_PT009H.grib2 2026-05-03 06:07 878K
20260503T00Z_MSC_CAPS_GeopotentialHeight_IsbL-1000_RLatLon0.03_PT009H.grib2 2026-05-03 06:07 887K
20260503T00Z_MSC_CAPS_GeopotentialHeight_IsbL-1015_RLatLon0.03_PT009H.grib2 2026-05-03 06:07 893K
20260503T00Z_MSC_CAPS_GeopotentialHeight_Sfc_RLatLon0.03_PT009H.grib2 2026-05-03 06:07 1.0M
20260503T00Z_MSC_CAPS_IcePellets-Accum_Sfc_RLatLon0.03_PT009H.grib2 2026-05-03 06:07 27K
20260503T00Z_MSC_CAPS_LatentHeatNetFlux_Sfc_RLatLon0.03_PT009H.grib2 2026-05-03 06:07 1.7M
20260503T00Z_MSC_CAPS_LiftedIndex-MU-VT_IsbL-0500_RLatLon0.03_PT009H.grib2 2026-05-03 06:07 3.3M
20260503T00Z_MSC_CAPS_MixedLayerThickness_Sfc_RLatLon0.03_PT009H.nc 2026-05-03 06:12 16M
20260503T00Z_MSC_CAPS_NetLongwaveRadiationFlux-Accum_Sfc_RLatLon0.03_PT009H.grib2 2026-05-03 06:07 2.8M
20260503T00Z_MSC_CAPS_NetShortwaveRadiationFlux-Accum_Sfc_RLatLon0.03_PT009H.grib2 2026-05-03 06:07 2.1M
20260503T00Z_MSC_CAPS_PlanetaryBoundaryLayerHeight_Sfc_RLatLon0.03_PT009H.grib2 2026-05-03 06:07 2.7M
20260503T00Z_MSC_CAPS_Precip-Accum_Sfc_RLatLon0.03_PT009H.grib2 2026-05-03 06:07 3.7M
20260503T00Z_MSC_CAPS_PrecipRate_Sfc_RLatLon0.03_PT009H.grib2 2026-05-03 06:07 485K
20260503T00Z_MSC_CAPS_PrecipType-Instant_Sfc_RLatLon0.03_PT009H.grib2 2026-05-03 06:07 1.6M
20260503T00Z_MSC_CAPS_Pressure_MSL_RLatLon0.03_PT009H.grib2 2026-05-03 06:07 925K
20260503T00Z_MSC_CAPS_Pressure_Sfc_RLatLon0.03_PT009H.grib2 2026-05-03 06:07 1.2M
20260503T00Z_MSC_CAPS_RadiativeTemp_Sfc_RLatLon0.03_PT009H.grib2 2026-05-03 06:07 2.1M
20260503T00Z_MSC_CAPS_Rain-Accum_Sfc_RLatLon0.03_PT009H.grib2 2026-05-03 06:07 1.6M
20260503T00Z_MSC_CAPS_RelativeHumidity_AGL-120m_RLatLon0.03_PT009H.grib2 2026-05-03 06:07 2.7M
20260503T00Z_MSC_CAPS_RelativeHumidity_AGL-2m_RLatLon0.03_PT009H.grib2 2026-05-03 06:07 2.9M
20260503T00Z_MSC_CAPS_RelativeHumidity_AGL-40m_RLatLon0.03_PT009H.grib2 2026-05-03 06:07 2.8M
20260503T00Z_MSC_CAPS_RelativeHumidity_AGL-80m_RLatLon0.03_PT009H.grib2 2026-05-03 06:07 2.7M
20260503T00Z_MSC_CAPS_RelativeHumidity_IsbL-0050_RLatLon0.03_PT009H.grib2 2026-05-03 06:07 718K
20260503T00Z_MSC_CAPS_RelativeHumidity_IsbL-0100_RLatLon0.03_PT009H.grib2 2026-05-03 06:07 853K
20260503T00Z_MSC_CAPS_RelativeHumidity_IsbL-0150_RLatLon0.03_PT009H.grib2 2026-05-03 06:07 491K
20260503T00Z_MSC_CAPS_RelativeHumidity_IsbL-0175_RLatLon0.03_PT009H.grib2 2026-05-03 06:07 476K
20260503T00Z_MSC_CAPS_RelativeHumidity_IsbL-0200_RLatLon0.03_PT009H.grib2 2026-05-03 06:07 663K
20260503T00Z_MSC_CAPS_RelativeHumidity_IsbL-0225_RLatLon0.03_PT009H.grib2 2026-05-03 06:07 858K
20260503T00Z_MSC_CAPS_RelativeHumidity_IsbL-0250_RLatLon0.03_PT009H.grib2 2026-05-03 06:07 1.1M
20260503T00Z_MSC_CAPS_RelativeHumidity_IsbL-0275_RLatLon0.03_PT009H.grib2 2026-05-03 06:07 1.4M
20260503T00Z_MSC_CAPS_RelativeHumidity_IsbL-0300_RLatLon0.03_PT009H.grib2 2026-05-03 06:07 1.5M
20260503T00Z_MSC_CAPS_RelativeHumidity_IsbL-0350_RLatLon0.03_PT009H.grib2 2026-05-03 06:07 1.9M
20260503T00Z_MSC_CAPS_RelativeHumidity_IsbL-0400_RLatLon0.03_PT009H.grib2 2026-05-03 06:07 1.8M
20260503T00Z_MSC_CAPS_RelativeHumidity_IsbL-0450_RLatLon0.03_PT009H.grib2 2026-05-03 06:07 1.9M
20260503T00Z_MSC_CAPS_RelativeHumidity_IsbL-0500_RLatLon0.03_PT009H.grib2 2026-05-03 06:07 2.1M
20260503T00Z_MSC_CAPS_RelativeHumidity_IsbL-0550_RLatLon0.03_PT009H.grib2 2026-05-03 06:07 2.1M
20260503T00Z_MSC_CAPS_RelativeHumidity_IsbL-0600_RLatLon0.03_PT009H.grib2 2026-05-03 06:07 2.1M
20260503T00Z_MSC_CAPS_RelativeHumidity_IsbL-0650_RLatLon0.03_PT009H.grib2 2026-05-03 06:07 2.3M
20260503T00Z_MSC_CAPS_RelativeHumidity_IsbL-0700_RLatLon0.03_PT009H.grib2 2026-05-03 06:07 2.3M
20260503T00Z_MSC_CAPS_RelativeHumidity_IsbL-0750_RLatLon0.03_PT009H.grib2 2026-05-03 06:07 2.3M
20260503T00Z_MSC_CAPS_RelativeHumidity_IsbL-0800_RLatLon0.03_PT009H.grib2 2026-05-03 06:07 2.4M
20260503T00Z_MSC_CAPS_RelativeHumidity_IsbL-0850_RLatLon0.03_PT009H.grib2 2026-05-03 06:07 2.4M
20260503T00Z_MSC_CAPS_RelativeHumidity_IsbL-0875_RLatLon0.03_PT009H.grib2 2026-05-03 06:07 2.5M
20260503T00Z_MSC_CAPS_RelativeHumidity_IsbL-0900_RLatLon0.03_PT009H.grib2 2026-05-03 06:07 2.6M
20260503T00Z_MSC_CAPS_RelativeHumidity_IsbL-0925_RLatLon0.03_PT009H.grib2 2026-05-03 06:07 2.6M
20260503T00Z_MSC_CAPS_RelativeHumidity_IsbL-0950_RLatLon0.03_PT009H.grib2 2026-05-03 06:07 2.7M
20260503T00Z_MSC_CAPS_RelativeHumidity_IsbL-0970_RLatLon0.03_PT009H.grib2 2026-05-03 06:07 2.7M
20260503T00Z_MSC_CAPS_RelativeHumidity_IsbL-0985_RLatLon0.03_PT009H.grib2 2026-05-03 06:07 2.8M
20260503T00Z_MSC_CAPS_RelativeHumidity_IsbL-1000_RLatLon0.03_PT009H.grib2 2026-05-03 06:07 2.8M
20260503T00Z_MSC_CAPS_RelativeHumidity_IsbL-1015_RLatLon0.03_PT009H.grib2 2026-05-03 06:07 2.9M
20260503T00Z_MSC_CAPS_Runoff-Accum_Sfc_RLatLon0.03_PT009H.grib2 2026-05-03 06:07 318K
20260503T00Z_MSC_CAPS_SeaIceAreaFraction_Sfc_RLatLon0.03_PT009H.nc 2026-05-03 06:12 15M
20260503T00Z_MSC_CAPS_SeaIceCompressiveStrength_Sfc_RLatLon0.03_PT009H.nc 2026-05-03 06:12 15M
20260503T00Z_MSC_CAPS_SeaIceDivergence_Sfc_RLatLon0.03_PT009H.nc 2026-05-03 06:12 15M
20260503T00Z_MSC_CAPS_SeaIceInternalPressure_Sfc_RLatLon0.03_PT009H.nc 2026-05-03 06:12 15M
20260503T00Z_MSC_CAPS_SeaIceShear_Sfc_RLatLon0.03_PT009H.nc 2026-05-03 06:12 14M
20260503T00Z_MSC_CAPS_SeaIceSnowTemp_Sfc_RLatLon0.03_PT009H.nc 2026-05-03 06:12 15M
20260503T00Z_MSC_CAPS_SeaIceSnowVolume_Sfc_RLatLon0.03_PT009H.nc 2026-05-03 06:12 15M
20260503T00Z_MSC_CAPS_SeaIceVelocityX_Sfc_RLatLon0.03_PT009H.nc 2026-05-03 06:12 15M
20260503T00Z_MSC_CAPS_SeaIceVelocityY_Sfc_RLatLon0.03_PT009H.nc 2026-05-03 06:12 15M
20260503T00Z_MSC_CAPS_SeaIceVolume_Sfc_RLatLon0.03_PT009H.nc 2026-05-03 06:12 15M
20260503T00Z_MSC_CAPS_SeaSurfaceHeight_Sfc_RLatLon0.03_PT009H.nc 2026-05-03 06:12 16M
20260503T00Z_MSC_CAPS_SeaWaterSalinity_DBS-0.5m_RLatLon0.03_PT009H.nc 2026-05-03 06:12 16M
20260503T00Z_MSC_CAPS_SeaWaterSalinity_DBS-all_RLatLon0.03_PT009H.nc 2026-05-03 06:12 107M
20260503T00Z_MSC_CAPS_SeaWaterTemp_DBS-0.5m_RLatLon0.03_PT009H.nc 2026-05-03 06:12 14M
20260503T00Z_MSC_CAPS_SeaWaterTemp_DBS-all_RLatLon0.03_PT009H.nc 2026-05-03 06:12 88M
20260503T00Z_MSC_CAPS_SeaWaterVelocityX_DBS-0.5m_RLatLon0.03_PT009H.nc 2026-05-03 06:12 17M
20260503T00Z_MSC_CAPS_SeaWaterVelocityX_DBS-all_RLatLon0.03_PT009H.nc 2026-05-03 06:12 211M
20260503T00Z_MSC_CAPS_SeaWaterVelocityY_DBS-0.5m_RLatLon0.03_PT009H.nc 2026-05-03 06:12 17M
20260503T00Z_MSC_CAPS_SeaWaterVelocityY_DBS-all_RLatLon0.03_PT009H.nc 2026-05-03 06:12 212M
20260503T00Z_MSC_CAPS_SensibleHeatNetFlux_Sfc_RLatLon0.03_PT009H.grib2 2026-05-03 06:07 2.0M
20260503T00Z_MSC_CAPS_ShowalterIndex_IsbL-0500_RLatLon0.03_PT009H.grib2 2026-05-03 06:07 4.3M
20260503T00Z_MSC_CAPS_Snow-Accum_Sfc_RLatLon0.03_PT009H.grib2 2026-05-03 06:07 2.7M
20260503T00Z_MSC_CAPS_SnowDensity_Sfc_RLatLon0.03_PT009H.grib2 2026-05-03 06:07 1.2M
20260503T00Z_MSC_CAPS_SnowDepthWaterEquivalent_Sfc_RLatLon0.03_PT009H.grib2 2026-05-03 06:07 661K
20260503T00Z_MSC_CAPS_SnowDepth_Sfc_RLatLon0.03_PT009H.grib2 2026-05-03 06:07 1.1M
20260503T00Z_MSC_CAPS_SoilTemp_DBS-0to10cm_RLatLon0.03_PT009H.grib2 2026-05-03 06:07 1.4M
20260503T00Z_MSC_CAPS_SoilTemp_Sfc_RLatLon0.03_PT009H.grib2 2026-05-03 06:07 1.9M
20260503T00Z_MSC_CAPS_SoilVolumetricIceContent_Sfc_RLatLon0.03_PT009H.grib2 2026-05-03 06:07 1.4M
20260503T00Z_MSC_CAPS_SoilVolumetricWaterContent_DBS-0to10cm_RLatLon0.03_PT009H.grib2 2026-05-03 06:07 1.2M
20260503T00Z_MSC_CAPS_SoilVolumetricWaterContent_DBS-0to1cm_RLatLon0.03_PT009H.grib2 2026-05-03 06:07 1.7M
20260503T00Z_MSC_CAPS_SpecificHumidity_AGL-120m_RLatLon0.03_PT009H.grib2 2026-05-03 06:07 1.7M
20260503T00Z_MSC_CAPS_SpecificHumidity_AGL-2m_RLatLon0.03_PT009H.grib2 2026-05-03 06:07 2.1M
20260503T00Z_MSC_CAPS_SpecificHumidity_AGL-40m_RLatLon0.03_PT009H.grib2 2026-05-03 06:07 1.8M
20260503T00Z_MSC_CAPS_SpecificHumidity_AGL-80m_RLatLon0.03_PT009H.grib2 2026-05-03 06:07 1.7M
20260503T00Z_MSC_CAPS_SpecificHumidity_IsbL-0050_RLatLon0.03_PT009H.grib2 2026-05-03 06:07 865K
20260503T00Z_MSC_CAPS_SpecificHumidity_IsbL-0100_RLatLon0.03_PT009H.grib2 2026-05-03 06:07 946K
20260503T00Z_MSC_CAPS_SpecificHumidity_IsbL-0150_RLatLon0.03_PT009H.grib2 2026-05-03 06:07 748K
20260503T00Z_MSC_CAPS_SpecificHumidity_IsbL-0175_RLatLon0.03_PT009H.grib2 2026-05-03 06:07 970K
20260503T00Z_MSC_CAPS_SpecificHumidity_IsbL-0200_RLatLon0.03_PT009H.grib2 2026-05-03 06:07 1.0M
20260503T00Z_MSC_CAPS_SpecificHumidity_IsbL-0225_RLatLon0.03_PT009H.grib2 2026-05-03 06:07 1.0M
20260503T00Z_MSC_CAPS_SpecificHumidity_IsbL-0250_RLatLon0.03_PT009H.grib2 2026-05-03 06:07 1.0M
20260503T00Z_MSC_CAPS_SpecificHumidity_IsbL-0275_RLatLon0.03_PT009H.grib2 2026-05-03 06:07 1.0M
20260503T00Z_MSC_CAPS_SpecificHumidity_IsbL-0300_RLatLon0.03_PT009H.grib2 2026-05-03 06:07 951K
20260503T00Z_MSC_CAPS_SpecificHumidity_IsbL-0350_RLatLon0.03_PT009H.grib2 2026-05-03 06:07 940K
20260503T00Z_MSC_CAPS_SpecificHumidity_IsbL-0400_RLatLon0.03_PT009H.grib2 2026-05-03 06:07 1.1M
20260503T00Z_MSC_CAPS_SpecificHumidity_IsbL-0450_RLatLon0.03_PT009H.grib2 2026-05-03 06:07 1.1M
20260503T00Z_MSC_CAPS_SpecificHumidity_IsbL-0500_RLatLon0.03_PT009H.grib2 2026-05-03 06:07 1.0M
20260503T00Z_MSC_CAPS_SpecificHumidity_IsbL-0550_RLatLon0.03_PT009H.grib2 2026-05-03 06:07 1.2M
20260503T00Z_MSC_CAPS_SpecificHumidity_IsbL-0600_RLatLon0.03_PT009H.grib2 2026-05-03 06:07 1.3M
20260503T00Z_MSC_CAPS_SpecificHumidity_IsbL-0650_RLatLon0.03_PT009H.grib2 2026-05-03 06:07 1.5M
20260503T00Z_MSC_CAPS_SpecificHumidity_IsbL-0700_RLatLon0.03_PT009H.grib2 2026-05-03 06:07 1.6M
20260503T00Z_MSC_CAPS_SpecificHumidity_IsbL-0750_RLatLon0.03_PT009H.grib2 2026-05-03 06:07 1.3M
20260503T00Z_MSC_CAPS_SpecificHumidity_IsbL-0800_RLatLon0.03_PT009H.grib2 2026-05-03 06:07 1.5M
20260503T00Z_MSC_CAPS_SpecificHumidity_IsbL-0850_RLatLon0.03_PT009H.grib2 2026-05-03 06:07 1.6M
20260503T00Z_MSC_CAPS_SpecificHumidity_IsbL-0875_RLatLon0.03_PT009H.grib2 2026-05-03 06:07 1.7M
20260503T00Z_MSC_CAPS_SpecificHumidity_IsbL-0900_RLatLon0.03_PT009H.grib2 2026-05-03 06:07 1.8M
20260503T00Z_MSC_CAPS_SpecificHumidity_IsbL-0925_RLatLon0.03_PT009H.grib2 2026-05-03 06:07 1.8M
20260503T00Z_MSC_CAPS_SpecificHumidity_IsbL-0950_RLatLon0.03_PT009H.grib2 2026-05-03 06:07 1.9M
20260503T00Z_MSC_CAPS_SpecificHumidity_IsbL-0970_RLatLon0.03_PT009H.grib2 2026-05-03 06:07 2.0M
20260503T00Z_MSC_CAPS_SpecificHumidity_IsbL-0985_RLatLon0.03_PT009H.grib2 2026-05-03 06:07 2.0M
20260503T00Z_MSC_CAPS_SpecificHumidity_IsbL-1000_RLatLon0.03_PT009H.grib2 2026-05-03 06:07 2.0M
20260503T00Z_MSC_CAPS_SpecificHumidity_IsbL-1015_RLatLon0.03_PT009H.grib2 2026-05-03 06:07 2.1M
20260503T00Z_MSC_CAPS_SpecificHumidity_Sfc_RLatLon0.03_PT009H.grib2 2026-05-03 06:07 2.0M
20260503T00Z_MSC_CAPS_StormRelativeHelicity_Sfc_RLatLon0.03_PT009H.grib2 2026-05-03 06:07 3.2M
20260503T00Z_MSC_CAPS_Thickness_IsbL-1000to0500_RLatLon0.03_PT009H.grib2 2026-05-03 06:07 476K
20260503T00Z_MSC_CAPS_TotalCloudCover_Sfc_RLatLon0.03_PT009H.grib2 2026-05-03 06:07 3.5M
20260503T00Z_MSC_CAPS_TurboclineDepth_Sfc_RLatLon0.03_PT009H.nc 2026-05-03 06:12 16M
20260503T00Z_MSC_CAPS_UpwardLongwaveRadiationFlux_NTAtm_RLatLon0.03_PT009H.grib2 2026-05-03 06:07 2.8M
20260503T00Z_MSC_CAPS_UpwardShortwaveRadiationFlux_NTAtm_RLatLon0.03_PT009H.grib2 2026-05-03 06:07 1.8M
20260503T00Z_MSC_CAPS_VerticalVelocity_IsbL-0250_RLatLon0.03_PT009H.grib2 2026-05-03 06:07 914K
20260503T00Z_MSC_CAPS_VerticalVelocity_IsbL-0500_RLatLon0.03_PT009H.grib2 2026-05-03 06:07 1.2M
20260503T00Z_MSC_CAPS_VerticalVelocity_IsbL-0700_RLatLon0.03_PT009H.grib2 2026-05-03 06:07 1.3M
20260503T00Z_MSC_CAPS_VerticalVelocity_IsbL-0850_RLatLon0.03_PT009H.grib2 2026-05-03 06:07 1.4M
20260503T00Z_MSC_CAPS_VerticalVelocity_IsbL-1000_RLatLon0.03_PT009H.grib2 2026-05-03 06:07 1.4M
20260503T00Z_MSC_CAPS_WindDir_AGL-10m_RLatLon0.03_PT009H.grib2 2026-05-03 06:07 2.3M
20260503T00Z_MSC_CAPS_WindDir_AGL-120m_RLatLon0.03_PT009H.grib2 2026-05-03 06:07 1.2M
20260503T00Z_MSC_CAPS_WindDir_AGL-40m_RLatLon0.03_PT009H.grib2 2026-05-03 06:07 1.3M
20260503T00Z_MSC_CAPS_WindDir_AGL-80m_RLatLon0.03_PT009H.grib2 2026-05-03 06:07 1.2M
20260503T00Z_MSC_CAPS_WindDir_IsbL-0050_RLatLon0.03_PT009H.grib2 2026-05-03 06:07 1.0M
20260503T00Z_MSC_CAPS_WindDir_IsbL-0100_RLatLon0.03_PT009H.grib2 2026-05-03 06:07 1.1M
20260503T00Z_MSC_CAPS_WindDir_IsbL-0150_RLatLon0.03_PT009H.grib2 2026-05-03 06:07 1.0M
20260503T00Z_MSC_CAPS_WindDir_IsbL-0175_RLatLon0.03_PT009H.grib2 2026-05-03 06:07 1.1M
20260503T00Z_MSC_CAPS_WindDir_IsbL-0200_RLatLon0.03_PT009H.grib2 2026-05-03 06:07 1.1M
20260503T00Z_MSC_CAPS_WindDir_IsbL-0225_RLatLon0.03_PT009H.grib2 2026-05-03 06:07 1.1M
20260503T00Z_MSC_CAPS_WindDir_IsbL-0250_RLatLon0.03_PT009H.grib2 2026-05-03 06:07 1.1M
20260503T00Z_MSC_CAPS_WindDir_IsbL-0275_RLatLon0.03_PT009H.grib2 2026-05-03 06:07 1.1M
20260503T00Z_MSC_CAPS_WindDir_IsbL-0300_RLatLon0.03_PT009H.grib2 2026-05-03 06:07 1.1M
20260503T00Z_MSC_CAPS_WindDir_IsbL-0350_RLatLon0.03_PT009H.grib2 2026-05-03 06:07 1.1M
20260503T00Z_MSC_CAPS_WindDir_IsbL-0400_RLatLon0.03_PT009H.grib2 2026-05-03 06:07 1.1M
20260503T00Z_MSC_CAPS_WindDir_IsbL-0450_RLatLon0.03_PT009H.grib2 2026-05-03 06:07 1.2M
20260503T00Z_MSC_CAPS_WindDir_IsbL-0500_RLatLon0.03_PT009H.grib2 2026-05-03 06:07 1.2M
20260503T00Z_MSC_CAPS_WindDir_IsbL-0550_RLatLon0.03_PT009H.grib2 2026-05-03 06:07 1.2M
20260503T00Z_MSC_CAPS_WindDir_IsbL-0600_RLatLon0.03_PT009H.grib2 2026-05-03 06:07 1.2M
20260503T00Z_MSC_CAPS_WindDir_IsbL-0650_RLatLon0.03_PT009H.grib2 2026-05-03 06:07 1.3M
20260503T00Z_MSC_CAPS_WindDir_IsbL-0700_RLatLon0.03_PT009H.grib2 2026-05-03 06:07 1.4M
20260503T00Z_MSC_CAPS_WindDir_IsbL-0750_RLatLon0.03_PT009H.grib2 2026-05-03 06:07 1.5M
20260503T00Z_MSC_CAPS_WindDir_IsbL-0800_RLatLon0.03_PT009H.grib2 2026-05-03 06:07 1.6M
20260503T00Z_MSC_CAPS_WindDir_IsbL-0850_RLatLon0.03_PT009H.grib2 2026-05-03 06:07 1.7M
20260503T00Z_MSC_CAPS_WindDir_IsbL-0875_RLatLon0.03_PT009H.grib2 2026-05-03 06:07 1.8M
20260503T00Z_MSC_CAPS_WindDir_IsbL-0900_RLatLon0.03_PT009H.grib2 2026-05-03 06:07 1.9M
20260503T00Z_MSC_CAPS_WindDir_IsbL-0925_RLatLon0.03_PT009H.grib2 2026-05-03 06:07 1.9M
20260503T00Z_MSC_CAPS_WindDir_IsbL-0950_RLatLon0.03_PT009H.grib2 2026-05-03 06:07 2.0M
20260503T00Z_MSC_CAPS_WindDir_IsbL-0970_RLatLon0.03_PT009H.grib2 2026-05-03 06:07 2.1M
20260503T00Z_MSC_CAPS_WindDir_IsbL-0985_RLatLon0.03_PT009H.grib2 2026-05-03 06:07 2.1M
20260503T00Z_MSC_CAPS_WindDir_IsbL-1000_RLatLon0.03_PT009H.grib2 2026-05-03 06:07 2.2M
20260503T00Z_MSC_CAPS_WindDir_IsbL-1015_RLatLon0.03_PT009H.grib2 2026-05-03 06:07 2.3M
20260503T00Z_MSC_CAPS_WindGust-Max_AGL-10m_RLatLon0.03_PT009H.grib2 2026-05-03 06:07 2.5M
20260503T00Z_MSC_CAPS_WindGust-Min_AGL-10m_RLatLon0.03_PT009H.grib2 2026-05-03 06:07 2.3M
20260503T00Z_MSC_CAPS_WindGust_AGL-10m_RLatLon0.03_PT009H.grib2 2026-05-03 06:07 2.4M
20260503T00Z_MSC_CAPS_WindSpeed_AGL-10m_RLatLon0.03_PT009H.grib2 2026-05-03 06:07 2.1M
20260503T00Z_MSC_CAPS_WindSpeed_AGL-120m_RLatLon0.03_PT009H.grib2 2026-05-03 06:07 1.1M
20260503T00Z_MSC_CAPS_WindSpeed_AGL-40m_RLatLon0.03_PT009H.grib2 2026-05-03 06:07 1.2M
20260503T00Z_MSC_CAPS_WindSpeed_AGL-80m_RLatLon0.03_PT009H.grib2 2026-05-03 06:07 1.1M
20260503T00Z_MSC_CAPS_WindSpeed_IsbL-0050_RLatLon0.03_PT009H.grib2 2026-05-03 06:07 853K
20260503T00Z_MSC_CAPS_WindSpeed_IsbL-0100_RLatLon0.03_PT009H.grib2 2026-05-03 06:07 1.0M
20260503T00Z_MSC_CAPS_WindSpeed_IsbL-0150_RLatLon0.03_PT009H.grib2 2026-05-03 06:07 1.1M
20260503T00Z_MSC_CAPS_WindSpeed_IsbL-0175_RLatLon0.03_PT009H.grib2 2026-05-03 06:07 1.2M
20260503T00Z_MSC_CAPS_WindSpeed_IsbL-0200_RLatLon0.03_PT009H.grib2 2026-05-03 06:07 941K
20260503T00Z_MSC_CAPS_WindSpeed_IsbL-0225_RLatLon0.03_PT009H.grib2 2026-05-03 06:07 958K
20260503T00Z_MSC_CAPS_WindSpeed_IsbL-0250_RLatLon0.03_PT009H.grib2 2026-05-03 06:07 1.0M
20260503T00Z_MSC_CAPS_WindSpeed_IsbL-0275_RLatLon0.03_PT009H.grib2 2026-05-03 06:07 1.0M
20260503T00Z_MSC_CAPS_WindSpeed_IsbL-0300_RLatLon0.03_PT009H.grib2 2026-05-03 06:07 1.0M
20260503T00Z_MSC_CAPS_WindSpeed_IsbL-0350_RLatLon0.03_PT009H.grib2 2026-05-03 06:07 1.0M
20260503T00Z_MSC_CAPS_WindSpeed_IsbL-0400_RLatLon0.03_PT009H.grib2 2026-05-03 06:07 1.0M
20260503T00Z_MSC_CAPS_WindSpeed_IsbL-0450_RLatLon0.03_PT009H.grib2 2026-05-03 06:07 1.3M
20260503T00Z_MSC_CAPS_WindSpeed_IsbL-0500_RLatLon0.03_PT009H.grib2 2026-05-03 06:07 1.4M
20260503T00Z_MSC_CAPS_WindSpeed_IsbL-0550_RLatLon0.03_PT009H.grib2 2026-05-03 06:07 1.4M
20260503T00Z_MSC_CAPS_WindSpeed_IsbL-0600_RLatLon0.03_PT009H.grib2 2026-05-03 06:07 1.4M
20260503T00Z_MSC_CAPS_WindSpeed_IsbL-0650_RLatLon0.03_PT009H.grib2 2026-05-03 06:07 1.4M
20260503T00Z_MSC_CAPS_WindSpeed_IsbL-0700_RLatLon0.03_PT009H.grib2 2026-05-03 06:07 1.5M
20260503T00Z_MSC_CAPS_WindSpeed_IsbL-0750_RLatLon0.03_PT009H.grib2 2026-05-03 06:07 1.5M
20260503T00Z_MSC_CAPS_WindSpeed_IsbL-0800_RLatLon0.03_PT009H.grib2 2026-05-03 06:07 1.6M
20260503T00Z_MSC_CAPS_WindSpeed_IsbL-0850_RLatLon0.03_PT009H.grib2 2026-05-03 06:07 1.7M
20260503T00Z_MSC_CAPS_WindSpeed_IsbL-0875_RLatLon0.03_PT009H.grib2 2026-05-03 06:07 1.7M
20260503T00Z_MSC_CAPS_WindSpeed_IsbL-0900_RLatLon0.03_PT009H.grib2 2026-05-03 06:07 1.8M
20260503T00Z_MSC_CAPS_WindSpeed_IsbL-0925_RLatLon0.03_PT009H.grib2 2026-05-03 06:07 1.8M
20260503T00Z_MSC_CAPS_WindSpeed_IsbL-0950_RLatLon0.03_PT009H.grib2 2026-05-03 06:07 1.9M
20260503T00Z_MSC_CAPS_WindSpeed_IsbL-0970_RLatLon0.03_PT009H.grib2 2026-05-03 06:07 1.9M
20260503T00Z_MSC_CAPS_WindSpeed_IsbL-0985_RLatLon0.03_PT009H.grib2 2026-05-03 06:07 2.0M
20260503T00Z_MSC_CAPS_WindSpeed_IsbL-1000_RLatLon0.03_PT009H.grib2 2026-05-03 06:07 2.0M
20260503T00Z_MSC_CAPS_WindSpeed_IsbL-1015_RLatLon0.03_PT009H.grib2 2026-05-03 06:07 2.1M
20260503T00Z_MSC_CAPS_WindU_AGL-10m_RLatLon0.03_PT009H.grib2 2026-05-03 06:07 1.9M
20260503T00Z_MSC_CAPS_WindU_AGL-120m_RLatLon0.03_PT009H.grib2 2026-05-03 06:07 898K
20260503T00Z_MSC_CAPS_WindU_AGL-40m_RLatLon0.03_PT009H.grib2 2026-05-03 06:07 1.2M
20260503T00Z_MSC_CAPS_WindU_AGL-80m_RLatLon0.03_PT009H.grib2 2026-05-03 06:07 1.2M
20260503T00Z_MSC_CAPS_WindU_IsbL-0050_RLatLon0.03_PT009H.grib2 2026-05-03 06:07 773K
20260503T00Z_MSC_CAPS_WindU_IsbL-0100_RLatLon0.03_PT009H.grib2 2026-05-03 06:07 1.0M
20260503T00Z_MSC_CAPS_WindU_IsbL-0150_RLatLon0.03_PT009H.grib2 2026-05-03 06:07 720K
20260503T00Z_MSC_CAPS_WindU_IsbL-0175_RLatLon0.03_PT009H.grib2 2026-05-03 06:07 856K
20260503T00Z_MSC_CAPS_WindU_IsbL-0200_RLatLon0.03_PT009H.grib2 2026-05-03 06:07 870K
20260503T00Z_MSC_CAPS_WindU_IsbL-0225_RLatLon0.03_PT009H.grib2 2026-05-03 06:07 892K
20260503T00Z_MSC_CAPS_WindU_IsbL-0250_RLatLon0.03_PT009H.grib2 2026-05-03 06:07 913K
20260503T00Z_MSC_CAPS_WindU_IsbL-0275_RLatLon0.03_PT009H.grib2 2026-05-03 06:07 711K
20260503T00Z_MSC_CAPS_WindU_IsbL-0300_RLatLon0.03_PT009H.grib2 2026-05-03 06:07 718K
20260503T00Z_MSC_CAPS_WindU_IsbL-0350_RLatLon0.03_PT009H.grib2 2026-05-03 06:07 729K
20260503T00Z_MSC_CAPS_WindU_IsbL-0400_RLatLon0.03_PT009H.grib2 2026-05-03 06:07 953K
20260503T00Z_MSC_CAPS_WindU_IsbL-0450_RLatLon0.03_PT009H.grib2 2026-05-03 06:07 968K
20260503T00Z_MSC_CAPS_WindU_IsbL-0500_RLatLon0.03_PT009H.grib2 2026-05-03 06:07 1.0M
20260503T00Z_MSC_CAPS_WindU_IsbL-0550_RLatLon0.03_PT009H.grib2 2026-05-03 06:07 913K
20260503T00Z_MSC_CAPS_WindU_IsbL-0600_RLatLon0.03_PT009H.grib2 2026-05-03 06:07 945K
20260503T00Z_MSC_CAPS_WindU_IsbL-0650_RLatLon0.03_PT009H.grib2 2026-05-03 06:07 1.0M
20260503T00Z_MSC_CAPS_WindU_IsbL-0700_RLatLon0.03_PT009H.grib2 2026-05-03 06:07 1.3M
20260503T00Z_MSC_CAPS_WindU_IsbL-0750_RLatLon0.03_PT009H.grib2 2026-05-03 06:07 1.4M
20260503T00Z_MSC_CAPS_WindU_IsbL-0800_RLatLon0.03_PT009H.grib2 2026-05-03 06:07 1.4M
20260503T00Z_MSC_CAPS_WindU_IsbL-0850_RLatLon0.03_PT009H.grib2 2026-05-03 06:07 1.5M
20260503T00Z_MSC_CAPS_WindU_IsbL-0875_RLatLon0.03_PT009H.grib2 2026-05-03 06:07 1.2M
20260503T00Z_MSC_CAPS_WindU_IsbL-0900_RLatLon0.03_PT009H.grib2 2026-05-03 06:07 1.3M
20260503T00Z_MSC_CAPS_WindU_IsbL-0925_RLatLon0.03_PT009H.grib2 2026-05-03 06:07 1.3M
20260503T00Z_MSC_CAPS_WindU_IsbL-0950_RLatLon0.03_PT009H.grib2 2026-05-03 06:07 1.4M
20260503T00Z_MSC_CAPS_WindU_IsbL-0970_RLatLon0.03_PT009H.grib2 2026-05-03 06:07 1.4M
20260503T00Z_MSC_CAPS_WindU_IsbL-0985_RLatLon0.03_PT009H.grib2 2026-05-03 06:07 1.4M
20260503T00Z_MSC_CAPS_WindU_IsbL-1000_RLatLon0.03_PT009H.grib2 2026-05-03 06:07 1.8M
20260503T00Z_MSC_CAPS_WindU_IsbL-1015_RLatLon0.03_PT009H.grib2 2026-05-03 06:07 1.9M
20260503T00Z_MSC_CAPS_WindV_AGL-10m_RLatLon0.03_PT009H.grib2 2026-05-03 06:07 1.9M
20260503T00Z_MSC_CAPS_WindV_AGL-120m_RLatLon0.03_PT009H.grib2 2026-05-03 06:07 892K
20260503T00Z_MSC_CAPS_WindV_AGL-40m_RLatLon0.03_PT009H.grib2 2026-05-03 06:07 1.2M
20260503T00Z_MSC_CAPS_WindV_AGL-80m_RLatLon0.03_PT009H.grib2 2026-05-03 06:07 1.2M
20260503T00Z_MSC_CAPS_WindV_IsbL-0050_RLatLon0.03_PT009H.grib2 2026-05-03 06:07 771K
20260503T00Z_MSC_CAPS_WindV_IsbL-0100_RLatLon0.03_PT009H.grib2 2026-05-03 06:07 1.0M
20260503T00Z_MSC_CAPS_WindV_IsbL-0150_RLatLon0.03_PT009H.grib2 2026-05-03 06:07 724K
20260503T00Z_MSC_CAPS_WindV_IsbL-0175_RLatLon0.03_PT009H.grib2 2026-05-03 06:07 861K
20260503T00Z_MSC_CAPS_WindV_IsbL-0200_RLatLon0.03_PT009H.grib2 2026-05-03 06:07 877K
20260503T00Z_MSC_CAPS_WindV_IsbL-0225_RLatLon0.03_PT009H.grib2 2026-05-03 06:07 893K
20260503T00Z_MSC_CAPS_WindV_IsbL-0250_RLatLon0.03_PT009H.grib2 2026-05-03 06:07 913K
20260503T00Z_MSC_CAPS_WindV_IsbL-0275_RLatLon0.03_PT009H.grib2 2026-05-03 06:07 922K
20260503T00Z_MSC_CAPS_WindV_IsbL-0300_RLatLon0.03_PT009H.grib2 2026-05-03 06:07 719K
20260503T00Z_MSC_CAPS_WindV_IsbL-0350_RLatLon0.03_PT009H.grib2 2026-05-03 06:07 945K
20260503T00Z_MSC_CAPS_WindV_IsbL-0400_RLatLon0.03_PT009H.grib2 2026-05-03 06:07 952K
20260503T00Z_MSC_CAPS_WindV_IsbL-0450_RLatLon0.03_PT009H.grib2 2026-05-03 06:07 970K
20260503T00Z_MSC_CAPS_WindV_IsbL-0500_RLatLon0.03_PT009H.grib2 2026-05-03 06:07 1.0M
20260503T00Z_MSC_CAPS_WindV_IsbL-0550_RLatLon0.03_PT009H.grib2 2026-05-03 06:07 916K
20260503T00Z_MSC_CAPS_WindV_IsbL-0600_RLatLon0.03_PT009H.grib2 2026-05-03 06:07 947K
20260503T00Z_MSC_CAPS_WindV_IsbL-0650_RLatLon0.03_PT009H.grib2 2026-05-03 06:07 1.2M
20260503T00Z_MSC_CAPS_WindV_IsbL-0700_RLatLon0.03_PT009H.grib2 2026-05-03 06:07 1.3M
20260503T00Z_MSC_CAPS_WindV_IsbL-0750_RLatLon0.03_PT009H.grib2 2026-05-03 06:07 1.1M
20260503T00Z_MSC_CAPS_WindV_IsbL-0800_RLatLon0.03_PT009H.grib2 2026-05-03 06:07 1.1M
20260503T00Z_MSC_CAPS_WindV_IsbL-0850_RLatLon0.03_PT009H.grib2 2026-05-03 06:07 1.2M
20260503T00Z_MSC_CAPS_WindV_IsbL-0875_RLatLon0.03_PT009H.grib2 2026-05-03 06:07 1.2M
20260503T00Z_MSC_CAPS_WindV_IsbL-0900_RLatLon0.03_PT009H.grib2 2026-05-03 06:07 1.3M
20260503T00Z_MSC_CAPS_WindV_IsbL-0925_RLatLon0.03_PT009H.grib2 2026-05-03 06:07 1.3M
20260503T00Z_MSC_CAPS_WindV_IsbL-0950_RLatLon0.03_PT009H.grib2 2026-05-03 06:07 1.4M
20260503T00Z_MSC_CAPS_WindV_IsbL-0970_RLatLon0.03_PT009H.grib2 2026-05-03 06:07 1.4M
20260503T00Z_MSC_CAPS_WindV_IsbL-0985_RLatLon0.03_PT009H.grib2 2026-05-03 06:07 1.4M
20260503T00Z_MSC_CAPS_WindV_IsbL-1000_RLatLon0.03_PT009H.grib2 2026-05-03 06:07 1.8M
20260503T00Z_MSC_CAPS_WindV_IsbL-1015_RLatLon0.03_PT009H.grib2 2026-05-03 06:07 1.8M